Meriden, CT

4:21 PM EDT on April 24, 2017 (GMT -0400)
Meriden Markham Municipal

Weather History for KMMK - September, 2013

Change the Weather History Date:

Saturday, September 14, 2013

  Actual Average (KOXC) Record (KOXC)
Temperature  
Mean Temperature 60 °F -  
Max Temperature 68 °F 69 °F 86 °F (2016)
Min Temperature 50 °F 52 °F 46 °F (2014)
Degree Days  
Heating Degree Days 6    
Growing Degree Days 10 (Base 50)    
Moisture  
Dew Point 48 °F    
Average Humidity 68    
Maximum Humidity 92    
Minimum Humidity 48    
Precipitation  
Precipitation 0.00 in - - ()
Sea Level Pressure  
Sea Level Pressure 29.96 in    
Wind  
Wind Speed 7 mph (NW)    
Max Wind Speed 14 mph    
Max Gust Speed 18 mph    
Visibility 10 miles    
Events      
Averages and records for this station are not official NWS values.
T = Trace of Precipitation, MM = Missing Value Source: NWS Daily Summary

Daily Weather History Graph

Daily Weather History Graph

Search for Another Location

Airport or City:

Trip Planner

Search our weather history database for the weather conditions in past years. The results will help you decide how hot, cold, wet, or windy it might be!

Date:

Astronomy

Sep. 14, 2013 Rise Set
Actual Time 6:30 AM EDT 7:01 PM EDT
Civil Twilight 6:02 AM EDT 7:29 PM EDT
Nautical Twilight 5:30 AM EDT 8:02 PM EDT
Astronomical Twilight 4:56 AM EDT 8:36 PM EDT
Moon 3:43 PM EDT (9/14) 12:56 AM EDT (9/14)
Length of Visible Light 13h 26m
Length of Day
12h 31m
Waxing Gibbous, 72% of the Moon is Illuminated
Sep 14
Waxing Gibbous
Sep 19
Full
Sep 26
Last Quarter
Oct 4
New
Oct 11
First Quarter

Hourly Weather History & Observations

Time (EDT) Temp. Dew Point Humidity Pressure Visibility Wind Dir Wind Speed Gust Speed Precip Events Conditions
12:53 AM 57.0 °F 50.0 °F 77% 29.82 in 10.0 mi NNW 8.1 mph - N/A   Clear
2:53 AM 55.0 °F 48.0 °F 77% 29.84 in 10.0 mi Variable 3.5 mph - N/A   Clear
3:53 AM 54.0 °F 46.9 °F 77% 29.85 in 10.0 mi NW 6.9 mph - N/A   Clear
4:53 AM 53.1 °F 46.9 °F 80% 29.87 in 10.0 mi WNW 8.1 mph - N/A   Clear
5:53 AM 52.0 °F 46.0 °F 80% 29.88 in 10.0 mi Calm Calm - N/A   Clear
6:53 AM 52.0 °F 46.0 °F 80% 29.91 in 10.0 mi Calm Calm - N/A   Clear
7:53 AM 55.9 °F 46.9 °F 72% 29.93 in 10.0 mi WNW 6.9 mph - N/A   Clear
8:53 AM 57.9 °F 46.9 °F 67% 29.93 in 10.0 mi WNW 13.8 mph - N/A   Clear
9:53 AM 61.0 °F 48.0 °F 62% 29.95 in 10.0 mi NNW 10.4 mph - N/A   Clear
10:53 AM 62.1 °F 48.0 °F 60% 29.96 in 10.0 mi NW 9.2 mph 18.4 mph N/A   Partly Cloudy
11:53 AM 64.0 °F 48.0 °F 56% 29.96 in 10.0 mi WNW 11.5 mph - N/A   Overcast
12:53 PM 63.0 °F 46.9 °F 56% 29.97 in 10.0 mi NNW 9.2 mph - N/A   Mostly Cloudy
1:53 PM 68.0 °F 48.0 °F 49% 29.95 in 10.0 mi North 8.1 mph - N/A   Mostly Cloudy
2:53 PM 66.0 °F 46.9 °F 50% 29.96 in 10.0 mi NW 11.5 mph - N/A   Overcast
3:53 PM 66.0 °F 46.9 °F 50% 29.97 in 10.0 mi NNW 10.4 mph - N/A   Mostly Cloudy
4:53 PM 66.0 °F 46.0 °F 48% 29.99 in 10.0 mi NW 10.4 mph - N/A   Partly Cloudy
5:53 PM 64.9 °F 46.9 °F 52% 30.01 in 10.0 mi NNW 8.1 mph - N/A   Clear
6:53 PM 62.1 °F 46.9 °F 58% 30.03 in 10.0 mi NNW 5.8 mph - N/A   Clear
7:53 PM 55.9 °F 50.0 °F 80% 30.05 in 10.0 mi Calm Calm - N/A   Clear
8:53 PM 55.0 °F 48.9 °F 80% 30.07 in 10.0 mi Calm Calm - N/A   Clear
9:53 PM 51.1 °F 48.9 °F 92% 30.08 in 10.0 mi Calm Calm - N/A   Clear
10:53 PM 53.1 °F 48.0 °F 83% 30.09 in 10.0 mi WNW 4.6 mph - N/A   Clear
11:53 PM 50.0 °F 46.9 °F 89% 30.10 in 10.0 mi Calm Calm - N/A   Clear